#timestamp,LO_Frequency,Hit,StdDev 
1460246415.2,286047009.1,N
1460246435.9,286047010.8,Y
1460246455.7,286047005.9,P
1460246475.6,286047006.8,P
1460246495.4,286047004.5,P
1460246515.2,286047007.2,Y
1460246535.1,286047000.0,P
1460246536.0,286047000.0,N
1460246555.8,286046997.0,N
1460246575.6,286047000.7,N
1460246595.5,286047002.4,N
1460246615.3,286046999.3,N
1460246635.1,286046997.6,N
1460246655.9,286046997.0,N
1460246675.7,286046998.8,N
1460246695.5,286046998.8,N
1460246715.4,286046998.8,N
1460246735.2,286046997.1,N
1460246755.0,286046999.8,N
1460246755.9,286046999.8,N
1460246775.8,286047004.3,N
1460246795.6,286047001.8,N
1460246815.4,286046999.7,N
1460246835.2,286046998.4,N
1460246855.1,286046997.6,N
1460246856.0,286046997.6,N
1460246875.8,286046997.0,N
1460246895.6,286046997.3,N
1460246915.5,286046997.4,N
1460246935.3,286046998.6,N
1460246955.1,286047000.9,N
1460246975.9,286047002.4,N
1460246995.7,286047002.2,N
1460247015.5,286046998.2,N
1460247035.4,286046998.5,N
1460247055.2,286046995.2,N
1460247075.0,286046994.5,N
1460247075.9,286046994.5,N
1460247095.8,286046993.4,N
1460247115.6,286046991.7,Y
1460247135.4,286046996.0,P
1460247155.3,286046997.6,N
1460247175.1,286047000.7,N
1460247176.0,286047000.7,N
1460247195.8,286047000.8,N
1460247215.7,286046996.9,N
1460247235.5,286046995.7,N
1460247255.3,286046994.1,N
1460247275.1,286046994.4,N
1460247295.9,286046990.9,Y
1460247315.7,286046990.8,P
1460247335.5,286046992.7,N
1460247355.4,286046991.3,P
1460247375.2,286046989.4,Y
1460247395.0,286046994.9,P
1460247396.0,286046994.9,P
1460247415.8,286046997.9,N
1460247435.6,286046996.0,N
1460247455.5,286046991.7,Y
1460247475.3,286046998.9,P
1460247495.1,286046998.1,N
1460247515.8,286047000.4,N
1460247535.7,286047001.0,N
1460247555.5,286046997.2,N
1460247575.3,286046996.2,N
1460247595.2,286046993.3,Y
1460247615.0,286046997.2,P
1460247615.9,286046997.2,P
1460247635.7,286046998.0,P
1460247655.6,286046996.2,Y
1460247675.4,286046996.8,P
1460247695.2,286046996.7,P
1460247715.1,286046997.2,P
1460247716.0,286046997.2,Y
1460247735.8,286047001.0,P
1460247755.7,286046999.8,N
1460247775.5,286047000.6,N
1460247795.3,286047002.8,N
1460247815.1,286047000.3,N
1460247835.9,286047000.4,N
1460247855.7,286047000.4,N
1460247875.5,286047000.0,N
1460247895.4,286047001.9,N
1460247915.2,286046999.8,N
1460247935.0,286047000.1,N
1460247935.9,286047000.1,N
1460247955.8,286047001.5,N
1460247975.6,286047004.1,Y
1460247995.4,286047001.9,P
1460248015.3,286047004.5,P
1460248035.1,286047007.5,P
1460248036.0,286047007.5,N
1460248055.8,286047010.9,Y
1460248075.7,286047011.2,P
1460248095.5,286047014.4,P
1460248115.3,286047012.9,P
1460248135.2,286047014.5,Y
1460248155.0,286047007.3,P
1460248155.9,286047007.3,P
1460248175.7,286047007.1,P
1460248195.6,286047005.4,Y
1460248215.4,286046995.3,P
1460248235.2,286046999.1,N
1460248255.1,286046994.9,N
1460248256.0,286046994.9,N
1460248275.8,286046997.2,N
1460248295.6,286046998.8,N
1460248315.5,286046998.1,N
1460248335.3,286046999.4,N
1460248355.1,286046996.8,N
1460248375.9,286046998.5,N
1460248395.7,286047001.0,N
1460248415.5,286047000.9,N
1460248435.4,286046998.3,N
1460248455.2,286046997.5,N
1460248475.0,286046996.2,N
1460248475.9,286046996.2,N
1460248495.8,286046996.9,N
1460248515.6,286046998.5,N
1460248535.4,286046997.0,N
1460248555.2,286046997.8,N
1460248575.1,286046997.9,N
1460248576.0,286046997.9,N
1460248595.8,286046995.2,N
1460248615.6,286046998.0,N
1460248635.5,286046997.6,N
1460248655.3,286046996.1,N
1460248675.1,286046996.8,N
1460248695.9,286046999.1,N
1460248715.7,286046997.3,N
1460248735.5,286046997.6,N
1460248755.4,286046994.7,Y
1460248775.2,286046998.1,P
1460248795.0,286046998.7,P
1460248795.9,286046998.7,N
1460248815.8,286047002.8,Y
1460248835.6,286047005.6,P
1460248855.4,286047004.0,N
1460248875.3,286046998.2,N
1460248895.1,286046999.2,N
1460248896.0,286046999.2,N
1460248915.8,286046999.0,N
1460248935.7,286046998.1,N
1460248955.5,286047000.5,N
1460248975.3,286047000.6,N
1460248995.2,286047001.1,N
1460249015.9,286047002.1,N
1460249035.7,286047000.1,N
1460249055.5,286047000.0,N
1460249075.4,286046999.3,N
1460249095.2,286046998.4,N
1460249115.0,286047000.9,N
1460249115.9,286047000.9,N
1460249135.8,286046999.4,N
1460249155.6,286046999.1,N
1460249175.4,286046999.4,N
1460249195.3,286046996.6,N
1460249215.1,286046997.3,N
1460249216.0,286046997.3,N
1460249235.8,286046998.6,N
1460249255.7,286046999.2,N
1460249275.5,286046997.1,N
1460249295.3,286046995.2,N
1460249315.2,286046995.3,N
1460249335.9,286046995.3,N
1460249355.7,286046999.6,N
1460249375.5,286046995.1,N
1460249395.4,286046997.1,N
1460249415.2,286046996.5,N
1460249435.0,286046998.7,N
1460249435.9,286046998.7,N
1460249455.8,286046998.2,N
1460249475.6,286046999.1,N
1460249495.4,286047001.2,N
1460249515.3,286046999.2,N
1460249535.1,286046997.2,N
1460249555.8,286046996.6,N
1460249575.7,286046999.5,N
1460249595.5,286046998.4,N
1460249615.3,286046998.3,N
1460249635.2,286047002.8,N
1460249655.9,286047001.9,N
1460249675.7,286047003.0,N
1460249695.6,286047003.1,N
1460249715.4,286046999.9,N
1460249735.2,286047001.6,N
1460249755.0,286047001.7,N
1460249756.0,286047001.7,N
1460249775.8,286047003.8,N
1460249795.6,286047004.2,N
1460249815.4,286047004.3,N
1460249835.3,286047003.7,N
1460249855.1,286047005.3,N
1460249875.8,286047005.2,N
1460249895.7,286047004.1,N
1460249915.5,286047004.4,N
1460249935.3,286047004.4,N
1460249955.2,286047003.5,N
1460249975.9,286047004.0,N
1460249995.7,286047000.0,N
